Location: Unspecified
(52.4292°N, 19.3359°E)
Time: 17:18:56
(UTC+02:00)

Transit 2A Rocket - Pass Details

Date: 30 May 2024
Orbit: 583 x 910 km, 66.7° (Epoch: 22 June)

Event Time Altitude Azimuth Distance (km) Brightness Sun altitude
Rises 11:40:23 0° 318° (NW) 3,432 8.1 57.3°
Reaches altitude 10° 11:42:55 10° 311° (NW) 2,529 7.5 57.5°
Maximum altitude 11:48:26 42° 243° (WSW) 1,260 6.8 57.9°
Drops below altitude 10° 11:54:06 10° 174° (S) 2,591 8.4 58.2°
Sets 11:56:44 0° 168° (SSE) 3,525 8.9 58.3°
